Year,Month,Day,Hour,Minute,Value (Times are PST for temperature in C)
2012,04,22,00,00,10.10
2012,04,22,00,01,10.10
2012,04,22,00,02,10.10
2012,04,22,00,03,10.10
2012,04,22,00,04,10.10
2012,04,22,00,05,10.10
2012,04,22,00,06,10.10
2012,04,22,00,07,10.10
2012,04,22,00,08,10.10
2012,04,22,00,09,10.10
2012,04,22,00,10,10.10
2012,04,22,00,11,10.10
2012,04,22,00,12,10.10
2012,04,22,00,13,10.10
2012,04,22,00,14,10.10
2012,04,22,00,15,10.10
2012,04,22,00,16,10.10
2012,04,22,00,17,10.00
2012,04,22,00,18,9.90
2012,04,22,00,19,9.90
2012,04,22,00,20,10.00
2012,04,22,00,21,10.00
2012,04,22,00,22,10.00
2012,04,22,00,23,10.00
2012,04,22,00,24,10.00
2012,04,22,00,25,9.90
2012,04,22,00,26,10.10
2012,04,22,00,27,10.10
2012,04,22,00,28,10.10
2012,04,22,00,29,10.10
2012,04,22,00,30,10.10
2012,04,22,00,31,10.10
2012,04,22,00,32,10.10
2012,04,22,00,33,10.00
2012,04,22,00,34,9.90
2012,04,22,00,35,9.90
2012,04,22,00,36,9.90
2012,04,22,00,37,9.90
2012,04,22,00,38,9.90
2012,04,22,00,39,9.90
2012,04,22,00,40,9.90
2012,04,22,00,41,9.90
2012,04,22,00,42,9.80
2012,04,22,00,43,9.80
2012,04,22,00,44,9.80
2012,04,22,00,45,9.80
2012,04,22,00,46,9.70
2012,04,22,00,47,9.70
2012,04,22,00,48,9.70
2012,04,22,00,49,9.70
2012,04,22,00,50,9.70
2012,04,22,00,51,9.70
2012,04,22,00,52,9.70
2012,04,22,00,53,9.70
2012,04,22,00,54,9.70
2012,04,22,00,55,9.60
2012,04,22,00,56,9.60
2012,04,22,00,57,9.60
2012,04,22,00,58,9.60
2012,04,22,00,59,9.60
2012,04,22,01,00,9.60
2012,04,22,01,01,9.60
2012,04,22,01,02,9.60
2012,04,22,01,03,9.60
2012,04,22,01,04,9.60
2012,04,22,01,05,9.60
2012,04,22,01,06,9.50
2012,04,22,01,07,9.50
2012,04,22,01,08,9.50
2012,04,22,01,09,9.50
2012,04,22,01,10,9.50
2012,04,22,01,11,9.50
2012,04,22,01,12,9.50
2012,04,22,01,13,9.50
2012,04,22,01,14,9.50
2012,04,22,01,15,9.50
2012,04,22,01,16,9.50
2012,04,22,01,17,9.50
2012,04,22,01,18,9.40
2012,04,22,01,19,9.40
2012,04,22,01,20,9.40
2012,04,22,01,21,9.40
2012,04,22,01,22,9.40
2012,04,22,01,23,9.40
2012,04,22,01,24,9.40
2012,04,22,01,25,9.40
2012,04,22,01,26,9.40
2012,04,22,01,27,9.40
2012,04,22,01,28,9.40
2012,04,22,01,29,9.30
2012,04,22,01,30,9.30
2012,04,22,01,31,9.30
2012,04,22,01,32,9.30
2012,04,22,01,33,9.30
2012,04,22,01,34,9.30
2012,04,22,01,35,9.30
2012,04,22,01,36,9.30
2012,04,22,01,37,9.30
2012,04,22,01,38,9.30
2012,04,22,01,39,9.30
2012,04,22,01,40,9.30
2012,04,22,01,41,9.30
2012,04,22,01,42,9.30
2012,04,22,01,43,9.30
2012,04,22,01,44,9.30
2012,04,22,01,45,9.40
2012,04,22,01,46,9.40
2012,04,22,01,47,9.40
2012,04,22,01,48,9.40
2012,04,22,01,49,9.40
2012,04,22,01,50,9.40
2012,04,22,01,51,9.40
2012,04,22,01,52,9.40
2012,04,22,01,53,9.40
2012,04,22,01,54,9.40
2012,04,22,01,55,9.40
2012,04,22,01,56,9.40
2012,04,22,01,57,9.40
2012,04,22,01,58,9.40
2012,04,22,01,59,9.40
2012,04,22,02,00,9.40
2012,04,22,02,01,9.40
2012,04,22,02,02,9.40
2012,04,22,02,03,9.40
2012,04,22,02,04,9.40
2012,04,22,02,05,9.40
2012,04,22,02,06,9.40
2012,04,22,02,07,9.40
2012,04,22,02,08,9.40
2012,04,22,02,09,9.40
2012,04,22,02,10,9.40
2012,04,22,02,11,9.40
2012,04,22,02,12,9.40
2012,04,22,02,13,9.40
2012,04,22,02,14,9.40
2012,04,22,02,15,9.40
2012,04,22,02,16,9.30
2012,04,22,02,17,9.30
2012,04,22,02,18,9.30
2012,04,22,02,19,9.30
2012,04,22,02,20,9.30
2012,04,22,02,21,9.30
2012,04,22,02,22,9.30
2012,04,22,02,23,9.30
2012,04,22,02,24,9.30
2012,04,22,02,25,9.30
2012,04,22,02,26,9.30
2012,04,22,02,27,9.30
2012,04,22,02,28,9.20
2012,04,22,02,29,9.20
2012,04,22,02,30,9.20
2012,04,22,02,31,9.20
2012,04,22,02,32,9.20
2012,04,22,02,33,9.20
2012,04,22,02,34,9.20
2012,04,22,02,35,9.20
2012,04,22,02,36,9.20
2012,04,22,02,37,9.20
2012,04,22,02,38,9.20
2012,04,22,02,39,9.20
2012,04,22,02,40,9.20
2012,04,22,02,41,9.20
2012,04,22,02,42,9.20
2012,04,22,02,43,9.20
2012,04,22,02,44,9.20
2012,04,22,02,45,9.30
2012,04,22,02,46,9.30
2012,04,22,02,47,9.30
2012,04,22,02,48,9.30
2012,04,22,02,49,9.30
2012,04,22,02,50,9.30
2012,04,22,02,51,9.30
2012,04,22,02,52,9.30
2012,04,22,02,53,9.30
2012,04,22,02,54,9.40
2012,04,22,02,55,9.40
2012,04,22,02,56,9.40
2012,04,22,02,57,9.40
2012,04,22,02,58,9.40
2012,04,22,02,59,9.40
2012,04,22,03,00,9.40
2012,04,22,03,01,9.40
2012,04,22,03,02,9.40
2012,04,22,03,03,9.40
2012,04,22,03,04,9.50
2012,04,22,03,05,9.50
2012,04,22,03,06,9.50
2012,04,22,03,07,9.50
2012,04,22,03,08,9.50
2012,04,22,03,09,9.50
2012,04,22,03,10,9.50
2012,04,22,03,11,9.50
2012,04,22,03,12,9.50
2012,04,22,03,13,9.50
2012,04,22,03,14,9.50
2012,04,22,03,15,9.50
2012,04,22,03,16,9.50
2012,04,22,03,17,9.50
2012,04,22,03,18,9.50
2012,04,22,03,19,9.50
2012,04,22,03,20,9.50
2012,04,22,03,21,9.50
2012,04,22,03,22,9.50
2012,04,22,03,23,9.40
2012,04,22,03,24,9.40
2012,04,22,03,25,9.40
2012,04,22,03,26,9.40
2012,04,22,03,27,9.40
2012,04,22,03,28,9.40
2012,04,22,03,29,9.40
2012,04,22,03,30,9.40
2012,04,22,03,31,9.40
2012,04,22,03,32,9.40
2012,04,22,03,33,9.30
2012,04,22,03,34,9.30
2012,04,22,03,35,9.30
2012,04,22,03,36,9.40
2012,04,22,03,37,9.40
2012,04,22,03,38,9.40
2012,04,22,03,39,9.40
2012,04,22,03,40,9.40
2012,04,22,03,41,9.40
2012,04,22,03,42,9.40
2012,04,22,03,43,9.40
2012,04,22,03,44,9.40
2012,04,22,03,45,9.40
2012,04,22,03,46,9.40
2012,04,22,03,47,9.40
2012,04,22,03,48,9.40
2012,04,22,03,49,9.40
2012,04,22,03,50,9.40
2012,04,22,03,51,9.40
2012,04,22,03,52,9.30
2012,04,22,03,53,9.30
2012,04,22,03,54,9.30
2012,04,22,03,55,9.30
2012,04,22,03,56,9.30
2012,04,22,03,57,9.30
2012,04,22,03,58,9.30
2012,04,22,03,59,9.20
2012,04,22,04,00,9.20
2012,04,22,04,01,9.20
2012,04,22,04,02,9.20
2012,04,22,04,03,9.20
2012,04,22,04,04,9.20
2012,04,22,04,05,9.20
2012,04,22,04,06,9.20
2012,04,22,04,07,9.20
2012,04,22,04,08,9.20
2012,04,22,04,09,9.20
2012,04,22,04,10,9.20
2012,04,22,04,11,9.20
2012,04,22,04,12,9.20
2012,04,22,04,13,9.20
2012,04,22,04,14,9.20
2012,04,22,04,15,9.20
2012,04,22,04,16,9.20
2012,04,22,04,17,9.10
2012,04,22,04,18,9.10
2012,04,22,04,19,9.10
2012,04,22,04,20,9.10
2012,04,22,04,21,9.10
2012,04,22,04,22,9.10
2012,04,22,04,23,9.10
2012,04,22,04,24,9.10
2012,04,22,04,25,9.20
2012,04,22,04,26,9.20
2012,04,22,04,27,9.20
2012,04,22,04,28,9.20
2012,04,22,04,29,9.20
2012,04,22,04,30,9.20
2012,04,22,04,31,9.20
2012,04,22,04,32,9.20
2012,04,22,04,33,9.20
2012,04,22,04,34,9.30
2012,04,22,04,35,9.30
2012,04,22,04,36,9.30
2012,04,22,04,37,9.30
2012,04,22,04,38,9.40
2012,04,22,04,39,9.40
2012,04,22,04,40,9.40
2012,04,22,04,41,9.40
2012,04,22,04,42,9.50
2012,04,22,04,43,9.50
2012,04,22,04,44,9.50
2012,04,22,04,45,9.50
2012,04,22,04,46,9.50
2012,04,22,04,47,9.50
2012,04,22,04,48,9.50
2012,04,22,04,49,9.50
2012,04,22,04,50,9.50
2012,04,22,04,51,9.50
2012,04,22,04,52,9.50
2012,04,22,04,53,9.50
2012,04,22,04,54,9.40
2012,04,22,04,55,9.40
2012,04,22,04,56,9.40
2012,04,22,04,57,9.40
2012,04,22,04,58,9.40
2012,04,22,04,59,9.40
2012,04,22,05,00,9.40
2012,04,22,05,01,9.40
2012,04,22,05,02,9.40
2012,04,22,05,03,9.40
2012,04,22,05,04,9.30
2012,04,22,05,05,9.30
2012,04,22,05,06,9.30
2012,04,22,05,07,9.30
2012,04,22,05,08,9.30
2012,04,22,05,09,9.30
2012,04,22,05,10,9.30
2012,04,22,05,11,9.30
2012,04,22,05,12,9.20
2012,04,22,05,13,9.20
2012,04,22,05,14,9.20
2012,04,22,05,15,9.30
2012,04,22,05,16,9.30
2012,04,22,05,17,9.40
2012,04,22,05,18,9.40
2012,04,22,05,19,9.40
2012,04,22,05,20,9.50
2012,04,22,05,21,9.50
2012,04,22,05,22,9.60
2012,04,22,05,23,9.60
2012,04,22,05,24,9.60
2012,04,22,05,25,9.60
2012,04,22,05,26,9.60
2012,04,22,05,27,9.60
2012,04,22,05,28,9.60
2012,04,22,05,29,9.60
2012,04,22,05,30,9.60
2012,04,22,05,31,9.50
2012,04,22,05,32,9.50
2012,04,22,05,33,9.50
2012,04,22,05,34,9.50
2012,04,22,05,35,9.50
2012,04,22,05,36,9.50
2012,04,22,05,37,9.50
2012,04,22,05,38,9.50
2012,04,22,05,39,9.40
2012,04,22,05,40,9.40
2012,04,22,05,41,9.40
2012,04,22,05,42,9.40
2012,04,22,05,43,9.40
2012,04,22,05,44,9.30
2012,04,22,05,45,9.30
2012,04,22,05,46,9.30
2012,04,22,05,47,9.30
2012,04,22,05,48,9.20
2012,04,22,05,49,9.20
2012,04,22,05,50,9.20
2012,04,22,05,51,9.20
2012,04,22,05,52,9.20
2012,04,22,05,53,9.20
2012,04,22,05,54,9.20
2012,04,22,05,55,9.20
2012,04,22,05,56,9.20
2012,04,22,05,57,9.20
2012,04,22,05,58,9.20
2012,04,22,05,59,9.20
2012,04,22,06,00,9.20
2012,04,22,06,01,9.20
2012,04,22,06,02,9.20
2012,04,22,06,03,9.20
2012,04,22,06,04,9.10
2012,04,22,06,05,9.10
2012,04,22,06,06,9.10
2012,04,22,06,07,9.10
2012,04,22,06,08,9.10
2012,04,22,06,09,9.10
2012,04,22,06,10,9.00
2012,04,22,06,11,9.00
2012,04,22,06,12,9.00
2012,04,22,06,13,9.00
2012,04,22,06,14,9.00
2012,04,22,06,15,8.90
2012,04,22,06,16,8.90
2012,04,22,06,17,8.90
2012,04,22,06,18,8.90
2012,04,22,06,19,8.90
2012,04,22,06,20,8.80
2012,04,22,06,21,8.80
2012,04,22,06,22,8.80
2012,04,22,06,23,8.70
2012,04,22,06,24,8.70
2012,04,22,06,25,8.70
2012,04,22,06,26,8.70
2012,04,22,06,27,8.70
2012,04,22,06,28,8.70
2012,04,22,06,29,8.70
2012,04,22,06,30,8.70
2012,04,22,06,31,8.70
2012,04,22,06,32,8.70
2012,04,22,06,33,8.70
2012,04,22,06,34,8.70
2012,04,22,06,35,8.70
2012,04,22,06,36,8.70
2012,04,22,06,37,8.70
2012,04,22,06,38,8.70
2012,04,22,06,39,8.70
2012,04,22,06,40,8.70
2012,04,22,06,41,8.60
2012,04,22,06,42,8.60
2012,04,22,06,43,8.60
2012,04,22,06,44,8.60
2012,04,22,06,45,8.60
2012,04,22,06,46,8.60
2012,04,22,06,47,8.60
2012,04,22,06,48,8.50
2012,04,22,06,49,8.50
2012,04,22,06,50,8.50
2012,04,22,06,51,8.50
2012,04,22,06,52,8.50
2012,04,22,06,53,8.50
2012,04,22,06,54,8.50
2012,04,22,06,55,8.50
2012,04,22,06,56,8.50
2012,04,22,06,57,8.50
2012,04,22,06,58,8.50
2012,04,22,06,59,8.60
2012,04,22,07,00,8.60
2012,04,22,07,01,8.60
2012,04,22,07,02,8.70
2012,04,22,07,03,8.70
2012,04,22,07,04,8.70
2012,04,22,07,05,8.70
2012,04,22,07,06,8.70
2012,04,22,07,07,8.70
2012,04,22,07,08,8.70
2012,04,22,07,09,8.80
2012,04,22,07,10,8.80
2012,04,22,07,11,8.80
2012,04,22,07,12,8.80
2012,04,22,07,13,8.90
2012,04,22,07,14,8.90
2012,04,22,07,15,8.90
2012,04,22,07,16,8.90
2012,04,22,07,17,8.90
2012,04,22,07,18,8.90
2012,04,22,07,19,8.90
2012,04,22,07,20,8.90
2012,04,22,07,21,8.90
2012,04,22,07,22,8.90
2012,04,22,07,23,8.90
2012,04,22,07,24,8.90
2012,04,22,07,25,8.90
2012,04,22,07,26,9.00
2012,04,22,07,27,9.00
2012,04,22,07,28,9.00
2012,04,22,07,29,9.10
2012,04,22,07,30,9.10
2012,04,22,07,31,9.10
2012,04,22,07,32,9.10
2012,04,22,07,33,9.10
2012,04,22,07,34,9.20
2012,04,22,07,35,9.20
2012,04,22,07,36,9.20
2012,04,22,07,37,9.20
2012,04,22,07,38,9.20
2012,04,22,07,39,9.20
2012,04,22,07,40,9.20
2012,04,22,07,41,9.20
2012,04,22,07,42,9.20
2012,04,22,07,43,9.20
2012,04,22,07,44,9.30
2012,04,22,07,45,9.30
2012,04,22,07,46,9.30
2012,04,22,07,47,9.30
2012,04,22,07,48,9.30
2012,04,22,07,49,9.40
2012,04,22,07,50,9.40
2012,04,22,07,51,9.40
2012,04,22,07,52,9.40
2012,04,22,07,53,9.40
2012,04,22,07,54,9.50
2012,04,22,07,55,9.50
2012,04,22,07,56,9.50
2012,04,22,07,57,9.50
2012,04,22,07,58,9.50
2012,04,22,07,59,9.50
2012,04,22,08,00,9.60
2012,04,22,08,01,9.60
2012,04,22,08,02,9.60
2012,04,22,08,03,9.60
2012,04,22,08,04,9.60
2012,04,22,08,05,9.60
2012,04,22,08,06,9.70
2012,04,22,08,07,9.70
2012,04,22,08,08,9.70
2012,04,22,08,09,9.70
2012,04,22,08,10,9.80
2012,04,22,08,11,9.90
2012,04,22,08,12,9.90
2012,04,22,08,13,10.00
2012,04,22,08,14,10.10
2012,04,22,08,15,10.10
2012,04,22,08,16,10.10
2012,04,22,08,17,10.20
2012,04,22,08,18,10.30
2012,04,22,08,19,10.40
2012,04,22,08,20,10.40
2012,04,22,08,21,10.40
2012,04,22,08,22,10.60
2012,04,22,08,23,10.60
2012,04,22,08,24,10.60
2012,04,22,08,25,10.60
2012,04,22,08,26,10.70
2012,04,22,08,27,10.70
2012,04,22,08,28,10.80
2012,04,22,08,29,10.80
2012,04,22,08,30,10.80
2012,04,22,08,31,10.90
2012,04,22,08,32,10.90
2012,04,22,08,33,10.90
2012,04,22,08,34,11.00
2012,04,22,08,35,11.10
2012,04,22,08,36,11.10
2012,04,22,08,37,11.10
2012,04,22,08,38,11.20
2012,04,22,08,39,11.20
2012,04,22,08,40,11.30
2012,04,22,08,41,11.40
2012,04,22,08,42,11.40
2012,04,22,08,43,11.40
2012,04,22,08,44,11.50
2012,04,22,08,45,11.60
2012,04,22,08,46,11.60
2012,04,22,08,47,11.70
2012,04,22,08,48,11.70
2012,04,22,08,49,11.80
2012,04,22,08,50,11.80
2012,04,22,08,51,11.80
2012,04,22,08,52,11.80
2012,04,22,08,53,11.80
2012,04,22,08,54,11.80
2012,04,22,08,55,11.80
2012,04,22,08,56,11.80
2012,04,22,08,57,11.90
2012,04,22,08,58,11.90
2012,04,22,08,59,11.90
2012,04,22,09,00,11.80
2012,04,22,09,01,11.80
2012,04,22,09,02,11.80
2012,04,22,09,03,11.80
2012,04,22,09,04,11.80
2012,04,22,09,05,11.80
2012,04,22,09,06,11.80
2012,04,22,09,07,11.90
2012,04,22,09,08,12.00
2012,04,22,09,09,12.00
2012,04,22,09,10,12.10
2012,04,22,09,11,12.20
2012,04,22,09,12,12.30
2012,04,22,09,13,12.40
2012,04,22,09,14,12.50
2012,04,22,09,15,12.50
2012,04,22,09,16,12.60
2012,04,22,09,17,12.70
2012,04,22,09,18,12.80
2012,04,22,09,19,13.00
2012,04,22,09,20,13.10
2012,04,22,09,21,13.10
2012,04,22,09,22,13.20
2012,04,22,09,23,13.10
2012,04,22,09,24,13.10
2012,04,22,09,25,13.10
2012,04,22,09,26,13.10
2012,04,22,09,27,13.10
2012,04,22,09,28,13.00
2012,04,22,09,29,13.10
2012,04,22,09,30,13.10
2012,04,22,09,31,13.10
2012,04,22,09,32,13.20
2012,04,22,09,33,13.30
2012,04,22,09,34,13.50
2012,04,22,09,35,13.50
2012,04,22,09,36,13.60
2012,04,22,09,37,13.70
2012,04,22,09,38,13.70
2012,04,22,09,39,13.90
2012,04,22,09,40,14.00
2012,04,22,09,41,14.00
2012,04,22,09,42,14.00
2012,04,22,09,43,14.00
2012,04,22,09,44,14.00
2012,04,22,09,45,14.10
2012,04,22,09,46,14.10
2012,04,22,09,47,14.10
2012,04,22,09,48,14.20
2012,04,22,09,49,14.20
2012,04,22,09,50,14.30
2012,04,22,09,51,14.30
2012,04,22,09,52,14.20
2012,04,22,09,53,14.20
2012,04,22,09,54,14.20
2012,04,22,09,55,14.20
2012,04,22,09,56,14.40
2012,04,22,09,57,14.50
2012,04,22,09,58,14.50
2012,04,22,09,59,14.60
2012,04,22,10,00,14.60
2012,04,22,10,01,14.60
2012,04,22,10,02,14.50
2012,04,22,10,03,14.30
2012,04,22,10,04,14.20
2012,04,22,10,05,14.00
2012,04,22,10,06,13.80
2012,04,22,10,07,13.70
2012,04,22,10,08,13.70
2012,04,22,10,09,13.70
2012,04,22,10,10,13.60
2012,04,22,10,11,13.50
2012,04,22,10,12,13.50
2012,04,22,10,13,13.60
2012,04,22,10,14,13.60
2012,04,22,10,15,13.50
2012,04,22,10,16,13.50
2012,04,22,10,17,13.50
2012,04,22,10,18,13.40
2012,04,22,10,19,13.20
2012,04,22,10,20,13.10
2012,04,22,10,21,12.90
2012,04,22,10,22,12.90
2012,04,22,10,23,12.80
2012,04,22,10,24,12.80
2012,04,22,10,25,12.80
2012,04,22,10,26,12.70
2012,04,22,10,27,12.60
2012,04,22,10,28,12.60
2012,04,22,10,29,12.50
2012,04,22,10,30,12.50
2012,04,22,10,31,12.60
2012,04,22,10,32,12.50
2012,04,22,10,33,12.50
2012,04,22,10,34,12.50
2012,04,22,10,35,12.40
2012,04,22,10,36,12.30
2012,04,22,10,37,12.30
2012,04,22,10,38,12.30
2012,04,22,10,39,12.50
2012,04,22,10,40,12.60
2012,04,22,10,41,12.70
2012,04,22,10,42,12.80
2012,04,22,10,43,12.90
2012,04,22,10,44,13.00
2012,04,22,10,45,12.90
2012,04,22,10,46,12.90
2012,04,22,10,47,12.80
2012,04,22,10,48,12.70
2012,04,22,10,49,12.80
2012,04,22,10,50,12.80
2012,04,22,10,51,12.80
2012,04,22,10,52,12.80
2012,04,22,10,53,12.70
2012,04,22,10,54,12.70
2012,04,22,10,55,12.70
2012,04,22,10,56,12.80
2012,04,22,10,57,12.90
2012,04,22,10,58,13.00
2012,04,22,10,59,13.00
2012,04,22,11,00,13.10
2012,04,22,11,01,13.10
2012,04,22,11,02,13.20
2012,04,22,11,03,13.10
2012,04,22,11,04,13.10
2012,04,22,11,05,13.20
2012,04,22,11,06,13.20
2012,04,22,11,07,13.20
2012,04,22,11,08,13.30
2012,04,22,11,09,13.30
2012,04,22,11,10,13.30
2012,04,22,11,11,13.20
2012,04,22,11,12,13.20
2012,04,22,11,13,13.30
2012,04,22,11,14,13.30
2012,04,22,11,15,13.30
2012,04,22,11,16,13.30
2012,04,22,11,17,13.30
2012,04,22,11,18,13.30
2012,04,22,11,19,13.30
2012,04,22,11,20,13.30
2012,04,22,11,21,13.20
2012,04,22,11,22,13.10
2012,04,22,11,23,13.10
2012,04,22,11,24,13.10
2012,04,22,11,25,13.20
2012,04,22,11,26,13.20
2012,04,22,11,27,13.20
2012,04,22,11,28,13.10
2012,04,22,11,29,13.10
2012,04,22,11,30,13.10
2012,04,22,11,31,13.20
2012,04,22,11,32,13.20
2012,04,22,11,33,13.30
2012,04,22,11,34,13.30
2012,04,22,11,35,13.20
2012,04,22,11,36,13.20
2012,04,22,11,37,13.20
2012,04,22,11,38,13.30
2012,04,22,11,39,13.30
2012,04,22,11,40,13.30
2012,04,22,11,41,13.30
2012,04,22,11,42,13.30
2012,04,22,11,43,13.50
2012,04,22,11,44,13.50
2012,04,22,11,45,13.60
2012,04,22,11,46,13.60
2012,04,22,11,47,13.70
2012,04,22,11,48,13.80
2012,04,22,11,49,13.80
2012,04,22,11,50,13.80
2012,04,22,11,51,13.70
2012,04,22,11,52,13.60
2012,04,22,11,53,13.60
2012,04,22,11,54,13.60
2012,04,22,11,55,13.60
2012,04,22,11,56,13.60
2012,04,22,11,57,13.70
2012,04,22,11,58,13.80
2012,04,22,11,59,13.90
2012,04,22,12,00,13.90
2012,04,22,12,01,14.00
2012,04,22,12,02,14.00
2012,04,22,12,03,13.90
2012,04,22,12,04,13.90
2012,04,22,12,05,13.90
2012,04,22,12,06,13.80
2012,04,22,12,07,13.70
2012,04,22,12,08,13.70
2012,04,22,12,09,13.60
2012,04,22,12,10,13.50
2012,04,22,12,11,13.50
2012,04,22,12,12,13.50
2012,04,22,12,13,13.50
2012,04,22,12,14,13.50
2012,04,22,12,15,13.60
2012,04,22,12,16,13.70
2012,04,22,12,17,13.80
2012,04,22,12,18,13.90
2012,04,22,12,19,14.10
2012,04,22,12,20,14.20
2012,04,22,12,21,14.30
2012,04,22,12,22,14.30
2012,04,22,12,23,14.40
2012,04,22,12,24,14.40
2012,04,22,12,25,14.40
2012,04,22,12,26,14.60
2012,04,22,12,27,14.70
2012,04,22,12,28,14.80
2012,04,22,12,29,14.80
2012,04,22,12,30,14.80
2012,04,22,12,31,14.70
2012,04,22,12,32,14.60
2012,04,22,12,33,14.60
2012,04,22,12,34,14.60
2012,04,22,12,35,14.60
2012,04,22,12,36,14.60
2012,04,22,12,37,14.60
2012,04,22,12,38,14.60
2012,04,22,12,39,14.60
2012,04,22,12,40,14.60
2012,04,22,12,41,14.50
2012,04,22,12,42,14.50
2012,04,22,12,43,14.60
2012,04,22,12,44,14.60
2012,04,22,12,45,14.70
2012,04,22,12,46,14.90
2012,04,22,12,47,14.90
2012,04,22,12,48,14.90
2012,04,22,12,49,14.90
2012,04,22,12,50,14.90
2012,04,22,12,51,14.80
2012,04,22,12,52,14.70
2012,04,22,12,53,14.60
2012,04,22,12,54,14.60
2012,04,22,12,55,14.70
2012,04,22,12,56,14.90
2012,04,22,12,57,14.90
2012,04,22,12,58,14.90
2012,04,22,12,59,14.80
2012,04,22,13,00,14.90
2012,04,22,13,01,14.90
2012,04,22,13,02,14.80
2012,04,22,13,03,14.70
2012,04,22,13,04,14.50
2012,04,22,13,05,14.40
2012,04,22,13,06,14.30
2012,04,22,13,07,14.30
2012,04,22,13,08,14.30
2012,04,22,13,09,14.30
2012,04,22,13,10,14.20
2012,04,22,13,11,14.20
2012,04,22,13,12,14.20
2012,04,22,13,13,14.20
2012,04,22,13,14,14.20
2012,04,22,13,15,14.10
2012,04,22,13,16,14.10
2012,04,22,13,17,14.10
2012,04,22,13,18,14.10
2012,04,22,13,19,14.00
2012,04,22,13,20,13.90
2012,04,22,13,21,13.80
2012,04,22,13,22,13.70
2012,04,22,13,23,13.70
2012,04,22,13,24,13.70
2012,04,22,13,25,13.80
2012,04,22,13,26,13.90
2012,04,22,13,27,14.00
2012,04,22,13,28,14.20
2012,04,22,13,29,14.20
2012,04,22,13,30,14.20
2012,04,22,13,31,14.20
2012,04,22,13,32,14.20
2012,04,22,13,33,14.20
2012,04,22,13,34,14.20
2012,04,22,13,35,14.20
2012,04,22,13,36,14.20
2012,04,22,13,37,14.40
2012,04,22,13,38,14.50
2012,04,22,13,39,14.40
2012,04,22,13,40,14.40
2012,04,22,13,41,14.40
2012,04,22,13,42,14.40
2012,04,22,13,43,14.40
2012,04,22,13,44,14.50
2012,04,22,13,45,14.70
2012,04,22,13,46,14.80
2012,04,22,13,47,14.80
2012,04,22,13,48,14.90
2012,04,22,13,49,14.90
2012,04,22,13,50,14.90
2012,04,22,13,51,14.90
2012,04,22,13,52,14.90
2012,04,22,13,53,14.80
2012,04,22,13,54,14.80
2012,04,22,13,55,14.80
2012,04,22,13,56,14.80
2012,04,22,13,57,14.80
2012,04,22,13,58,14.90
2012,04,22,13,59,15.00
2012,04,22,14,00,15.10
2012,04,22,14,01,15.30
2012,04,22,14,02,15.50
2012,04,22,14,03,15.50
2012,04,22,14,04,15.60
2012,04,22,14,05,15.70
2012,04,22,14,06,15.70
2012,04,22,14,07,15.70
2012,04,22,14,08,15.80
2012,04,22,14,09,16.00
2012,04,22,14,10,16.00
2012,04,22,14,11,15.90
2012,04,22,14,12,16.00
2012,04,22,14,13,16.00
2012,04,22,14,14,15.90
2012,04,22,14,15,15.90
2012,04,22,14,16,15.80
2012,04,22,14,17,15.70
2012,04,22,14,18,15.70
2012,04,22,14,19,15.70
2012,04,22,14,20,15.60
2012,04,22,14,21,15.50
2012,04,22,14,22,15.40
2012,04,22,14,23,15.30
2012,04,22,14,24,15.30
2012,04,22,14,25,15.30
2012,04,22,14,26,15.40
2012,04,22,14,27,15.40
2012,04,22,14,28,15.30
2012,04,22,14,29,15.30
2012,04,22,14,30,15.30
2012,04,22,14,31,15.30
2012,04,22,14,32,15.30
2012,04,22,14,33,15.40
2012,04,22,14,34,15.50
2012,04,22,14,35,15.60
2012,04,22,14,36,15.70
2012,04,22,14,37,15.60
2012,04,22,14,38,15.60
2012,04,22,14,39,15.60
2012,04,22,14,40,15.60
2012,04,22,14,41,15.50
2012,04,22,14,42,15.50
2012,04,22,14,43,15.50
2012,04,22,14,44,15.60
2012,04,22,14,45,15.70
2012,04,22,14,46,15.80
2012,04,22,14,47,15.80
2012,04,22,14,48,15.80
2012,04,22,14,49,15.80
2012,04,22,14,50,15.80
2012,04,22,14,51,15.80
2012,04,22,14,52,15.80
2012,04,22,14,53,15.70
2012,04,22,14,54,15.80
2012,04,22,14,55,15.80
2012,04,22,14,56,15.80
2012,04,22,14,57,15.90
2012,04,22,14,58,16.00
2012,04,22,14,59,16.20
2012,04,22,15,00,16.30
2012,04,22,15,01,16.30
2012,04,22,15,02,16.30
2012,04,22,15,03,16.30
2012,04,22,15,04,16.30
2012,04,22,15,05,16.20
2012,04,22,15,06,16.10
2012,04,22,15,07,16.10
2012,04,22,15,08,16.10
2012,04,22,15,09,16.10
2012,04,22,15,10,16.10
2012,04,22,15,11,16.10
2012,04,22,15,12,16.10
2012,04,22,15,13,16.10
2012,04,22,15,14,16.10
2012,04,22,15,15,16.20
2012,04,22,15,16,16.20
2012,04,22,15,17,16.20
2012,04,22,15,18,16.10
2012,04,22,15,19,16.10
2012,04,22,15,20,16.20
2012,04,22,15,21,16.30
2012,04,22,15,22,16.40
2012,04,22,15,23,16.40
2012,04,22,15,24,16.50
2012,04,22,15,25,16.50
2012,04,22,15,26,16.40
2012,04,22,15,27,16.40
2012,04,22,15,28,16.40
2012,04,22,15,29,16.40
2012,04,22,15,30,16.40
2012,04,22,15,31,16.50
2012,04,22,15,32,16.60
2012,04,22,15,33,16.60
2012,04,22,15,34,16.60
2012,04,22,15,35,16.60
2012,04,22,15,36,16.50
2012,04,22,15,37,16.40
2012,04,22,15,38,16.50
2012,04,22,15,39,16.60
2012,04,22,15,40,16.80
2012,04,22,15,41,17.00
2012,04,22,15,42,17.00
2012,04,22,15,43,17.20
2012,04,22,15,44,17.20
2012,04,22,15,45,17.20
2012,04,22,15,46,17.20
2012,04,22,15,47,17.20
2012,04,22,15,48,17.00
2012,04,22,15,49,17.00
2012,04,22,15,50,17.10
2012,04,22,15,51,17.30
2012,04,22,15,52,17.40
2012,04,22,15,53,17.50
2012,04,22,15,54,17.40
2012,04,22,15,55,17.40
2012,04,22,15,56,17.30
2012,04,22,15,57,17.30
2012,04,22,15,58,17.30
2012,04,22,15,59,17.20
2012,04,22,16,00,17.00
2012,04,22,16,01,17.00
2012,04,22,16,02,16.90
2012,04,22,16,03,16.90
2012,04,22,16,04,17.00
2012,04,22,16,05,16.90
2012,04,22,16,06,16.90
2012,04,22,16,07,16.80
2012,04,22,16,08,16.90
2012,04,22,16,09,16.90
2012,04,22,16,10,16.90
2012,04,22,16,11,16.80
2012,04,22,16,12,16.80
2012,04,22,16,13,16.70
2012,04,22,16,14,16.70
2012,04,22,16,15,16.70
2012,04,22,16,16,16.80
2012,04,22,16,17,16.70
2012,04,22,16,18,16.70
2012,04,22,16,19,16.80
2012,04,22,16,20,16.90
2012,04,22,16,21,17.00
2012,04,22,16,22,17.10
2012,04,22,16,23,17.00
2012,04,22,16,24,17.00
2012,04,22,16,25,17.10
2012,04,22,16,26,17.20
2012,04,22,16,27,17.30
2012,04,22,16,28,17.40
2012,04,22,16,29,17.30
2012,04,22,16,30,17.30
2012,04,22,16,31,17.10
2012,04,22,16,32,17.00
2012,04,22,16,33,16.90
2012,04,22,16,34,16.90
2012,04,22,16,35,16.80
2012,04,22,16,36,16.60
2012,04,22,16,37,16.40
2012,04,22,16,38,16.20
2012,04,22,16,39,16.10
2012,04,22,16,40,16.00
2012,04,22,16,41,16.10
2012,04,22,16,42,16.00
2012,04,22,16,43,15.90
2012,04,22,16,44,15.80
2012,04,22,16,45,15.80
2012,04,22,16,46,15.80
2012,04,22,16,47,15.80
2012,04,22,16,48,15.80
2012,04,22,16,49,15.70
2012,04,22,16,50,15.60
2012,04,22,16,51,15.50
2012,04,22,16,52,15.40
2012,04,22,16,53,15.20
2012,04,22,16,54,15.10
2012,04,22,16,55,15.10
2012,04,22,16,56,15.10
2012,04,22,16,57,15.00
2012,04,22,16,58,15.00
2012,04,22,16,59,15.00
2012,04,22,17,00,15.00
2012,04,22,17,01,15.00
2012,04,22,17,02,15.10
2012,04,22,17,03,15.10
2012,04,22,17,04,15.10
2012,04,22,17,05,15.00
2012,04,22,17,06,15.00
2012,04,22,17,07,15.00
2012,04,22,17,08,15.00
2012,04,22,17,09,15.00
2012,04,22,17,10,15.00
2012,04,22,17,11,14.90
2012,04,22,17,12,14.90
2012,04,22,17,13,14.80
2012,04,22,17,14,14.80
2012,04,22,17,15,14.70
2012,04,22,17,16,14.50
2012,04,22,17,17,14.40
2012,04,22,17,18,14.30
2012,04,22,17,19,14.20
2012,04,22,17,20,14.10
2012,04,22,17,21,14.10
2012,04,22,17,22,14.10
2012,04,22,17,23,14.10
2012,04,22,17,24,14.20
2012,04,22,17,25,14.20
2012,04,22,17,26,14.20
2012,04,22,17,27,14.20
2012,04,22,17,28,14.10
2012,04,22,17,29,14.10
2012,04,22,17,30,14.10
2012,04,22,17,31,14.00
2012,04,22,17,32,14.00
2012,04,22,17,33,13.90
2012,04,22,17,34,14.00
2012,04,22,17,35,14.00
2012,04,22,17,36,14.10
2012,04,22,17,37,14.20
2012,04,22,17,38,14.20
2012,04,22,17,39,14.30